Weather History for Traverse City, MI

Change the Weather History Date:

Saturday, February 8, 2014

  Actual Average Record
Temperature  
Mean Temperature 7 °F 22 °F  
Max Temperature 19 °F 29 °F 52 °F (1925)
Min Temperature -6 °F 14 °F -18 °F (1904)
Degree Days  
Heating Degree Days 58 43  
Month to date heating degree days 416 351  
Since 1 July heating degree days 4720 4507  
Moisture  
Dew Point 2 °F    
Average Humidity 71    
Maximum Humidity 91    
Minimum Humidity 51    
Precipitation  
Precipitation T in 0.05 in 0.86 in (1966)
Month to date precipitation 0.07 0.46  
Year to date precipitation 1.06 3.28  
Snow  
Snow 0.00 in - - ()
Snow Depth 25.00 in    
Sea Level Pressure  
Sea Level Pressure 30.20 in    
Wind  
Wind Speed 3 mph (WSW)    
Max Wind Speed 14 mph    
Max Gust Speed 17 mph    
Visibility 9 miles    
Events Snow    
T = Trace of Precipitation, MM = Missing Value Source: NWS Daily Summary

Daily Weather History Graph

Daily Weather History Graph

Search for Another Location

Airport:

Trip Planner

Search our weather history database for the weather conditions in past years. The results will help you decide how hot, cold, wet, or windy it might be!

Date:

Astronomy

Feb. 08, 2014 Rise Set
Actual Time 7:52 AM EST 6:00 PM EST
Civil Twilight 7:22 AM EST 6:31 PM EST
Nautical Twilight 6:47 AM EST 7:06 PM EST
Astronomical Twilight 6:13 AM EST 7:40 PM EST
Moon 12:50 PM EST (2/8) 3:08 AM EST (2/8)
Length of Visible Light 11h 09m
Length of Day
10h 08m
Waxing Gibbous, 68% of the Moon is Illuminated
Feb 8
Waxing Gibbous
Feb 14
Full
Feb 22
Last Quarter
Mar 1
New
Mar 8
First Quarter

Hourly Weather History & Observations

Time (EST) Temp. Windchill Dew Point Humidity Pressure Visibility Wind Dir Wind Speed Gust Speed Precip Events Conditions
12:53 AM 12.0 °F 2.7 °F 3.0 °F 67% 30.20 in 10.0 mi WSW 5.8 mph - N/A   Clear
1:53 AM 7.0 °F - -0.0 °F 73% 30.19 in 10.0 mi Calm Calm - N/A   Clear
2:53 AM -0.9 °F - -4.0 °F 87% 30.22 in 10.0 mi Calm Calm - N/A   Clear
3:53 AM -0.9 °F -8.9 °F -4.0 °F 87% 30.22 in 10.0 mi South 3.5 mph - N/A   Clear
4:53 AM -4.0 °F - -8.0 °F 83% 30.22 in 10.0 mi Calm Calm - N/A   Clear
5:53 AM -4.0 °F - -9.0 °F 79% 30.23 in 10.0 mi Calm Calm - N/A   Clear
6:53 AM -4.0 °F - -9.9 °F 76% 30.23 in 10.0 mi Calm Calm - N/A   Clear
7:53 AM -5.1 °F - -11.0 °F 76% 30.24 in 10.0 mi Calm Calm - N/A   Mostly Cloudy
8:53 AM -6.0 °F - -7.1 °F 95% 30.24 in 10.0 mi Calm Calm - N/A   Mostly Cloudy
9:53 AM 3.9 °F - 1.0 °F 88% 30.24 in 10.0 mi Calm Calm - N/A   Scattered Clouds
10:53 AM 14.0 °F 5.1 °F 3.9 °F 64% 30.23 in 10.0 mi West 5.8 mph - N/A   Mostly Cloudy
11:53 AM 16.0 °F 4.4 °F 3.0 °F 57% 30.22 in 10.0 mi West 9.2 mph - N/A   Mostly Cloudy
12:53 PM 18.0 °F 4.8 °F 5.0 °F 57% 30.20 in 10.0 mi West 12.7 mph - N/A   Mostly Cloudy
1:53 PM 19.0 °F 9.0 °F 5.0 °F 54% 30.18 in 10.0 mi SW 8.1 mph - N/A   Mostly Cloudy
2:53 PM 19.0 °F 6.1 °F 6.1 °F 57% 30.18 in 10.0 mi West 12.7 mph - N/A   Overcast
3:53 PM 17.1 °F 7.6 °F 7.0 °F 65% 30.17 in 10.0 mi West 6.9 mph - 0.00 in   Overcast
4:53 PM 18.0 °F 9.8 °F 8.1 °F 65% 30.17 in 9.0 mi West 5.8 mph - N/A   Overcast
5:53 PM 18.0 °F - 8.1 °F 65% 30.17 in 9.0 mi Calm Calm - 0.00 in   Overcast
6:53 PM 16.0 °F - 8.1 °F 71% 30.18 in 10.0 mi Calm Calm - N/A   Overcast
7:53 PM 14.0 °F 8.2 °F 8.1 °F 77% 30.17 in 10.0 mi ESE 3.5 mph - N/A   Overcast
8:53 PM 12.9 °F - 6.1 °F 74% 30.17 in 10.0 mi Calm Calm - N/A   Overcast
9:53 PM 10.9 °F - 6.1 °F 81% 30.16 in 6.0 mi Calm Calm - N/A   Haze
10:53 PM 12.9 °F - 7.0 °F 77% 30.15 in 4.0 mi Calm Calm - 0.00 in Snow Light Snow
11:53 PM 14.0 °F - 8.1 °F 77% 30.14 in 8.0 mi Calm Calm - 0.00 in   Overcast